User: anonymous   Login
Location: Chillicothe
(39.7950°N, 93.5520°W)
Time: 06:14:34
(UTC-05:00)
Language:

Tiros 1 - Orbit

View from above orbital plane
View from above orbital plane
View from above satellite
View from above satellite

Ground track
Ground track

The orbit data is extracted from the following two-line orbital elements,

1    29U 60002B   19286.82634123 -.00000105 +00000-0 +15255-4 0  9993
2    29 048.3810 037.2163 0024598 253.2032 106.6181 14.74322352182001
Epoch (UTC): 13 October 2019 19:49:55
Eccentricity: 0.0024598
inclination: 48.3810°
perigee height: 630 km
apogee height: 664 km
right ascension of ascending node: 37.2163°
argument of perigee: 253.2032°
revolutions per day: 14.74322352
mean anomaly at epoch: 106.6181°
orbit number at epoch: 18200

The dashed part of the orbit path shows where the satellite is in the earth's shadow,  

DLR